Weather in Goritsy

Russia / Tver Oblast     56°51′45″N   31°52′21″E
temp.,
°C
wind,
m/s
gust,
m/s
humid.,
%
clouds,
%
prec.,
mm/h
press.,
hPa
HPBL,
m
8 march, mon
mon800:00−8wnw3129359 0.9 996502
03:00−9wnw5128947 0.9 998617
06:00−10nw4109481 0.1 1000590
09:00−9nnw489090 0.3 1003655
12:00−7nnw4784100 0.1 1006859
15:00−7nnw5781100 0.3 1008931
18:00−9nnw4886100 0.1 1010741
21:00−12nnw3892100 0.1 1013253
9 march, tue
tue900:00−14nnw259617 0.0 1015102
03:00−15nnw239939 0.0 101745
06:00−16nnw239998 0.0 101857
09:00−14nnw269496 0.1 1020335
12:00−11nnw3582100 0.0 1020712
15:00−9nnw347599 0.1 1021883
18:00−11nnw2284100 0.0 102143
21:00−14ne2389100 0.0 102369
10 march, wed
wed1000:00−15e2493100 0.0 1024128
03:00−16e3693100 0.0 1026246
06:00−19e379585 0.0 1027170
09:00−19e378844 0.0 1029234
12:00−13e36690 0.0 1030448
15:00−10ese34640 0.0 1030764
18:00−12ese22800 0.0 103021
21:00−16se22869 0.0 103220
11 march, thu
thu1100:00−18se228843 0.0 103221
03:00−18sse238946 0.0 103260
06:00−19sse368842 0.0 1031133
09:00−16sse488158 0.0 1031255
12:00−11s5106994 0.0 1029450
15:00−7s596765 0.0 1027600
18:00−9sse511750 0.0 1025510
21:00−12sse513817 0.0 1024407
12 march, fri
fri1200:00−12sse61588100 0.0 1022452
03:00−12sse61786100 0.0 1019540
06:00−11sse71682100 0.0 1015633
09:00−9sse81787100 0.1 1011737
12:00−7sse81691100 1.5 1008979
15:00−4s71492100 2.9 10061042
18:00−3s51295100 1.9 1004711
21:00−2s4997100 2.3 1004305